Weather History for Fort Myers, FL

Change the Weather History Date:

Sunday, June 2, 2013

  Actual Average Record
Temperature  
Mean Temperature 82 °F 82 °F  
Max Temperature 91 °F 91 °F 97 °F (1988)
Min Temperature 72 °F 72 °F 63 °F (1984)
Degree Days  
Heating Degree Days 0 0  
Month to date heating degree days 0 0  
Since 1 June heating degree days 0 0  
Since 1 July heating degree days 201 287  
Cooling Degree Days 17 17  
Month to date cooling degree days 34 34  
Year to date cooling degree days 1172 1100  
Since 1 June cooling degree days 34 34  
Growing Degree Days 31 (Base 50)    
Moisture  
Dew Point 72 °F    
Average Humidity 76    
Maximum Humidity 100    
Minimum Humidity 52    
Precipitation  
Precipitation 0.00 in 0.22 in 3.65 in (1922)
Month to date precipitation T 0.43  
Year to date precipitation 10.16 12.23  
Sea Level Pressure  
Sea Level Pressure 29.97 in    
Wind  
Wind Speed 5 mph (South)    
Max Wind Speed 15 mph    
Max Gust Speed 20 mph    
Visibility 10 miles    
Events      
T = Trace of Precipitation, MM = Missing Value Source: NWS Daily Summary

Daily Weather History Graph

Daily Weather History Graph

Search for Another Location

Airport:

Trip Planner

Search our weather history database for the weather conditions in past years. The results will help you decide how hot, cold, wet, or windy it might be!

Date:

Astronomy

Jun. 02, 2013 Rise Set
Actual Time 6:34 AM EDT 8:17 PM EDT
Civil Twilight 6:08 AM EDT 8:43 PM EDT
Nautical Twilight 5:37 AM EDT 9:14 PM EDT
Astronomical Twilight 5:04 AM EDT 9:47 PM EDT
Moon 2:31 AM EDT (6/2) 3:12 PM EDT (6/2)
Length of Visible Light 14h 34m
Length of Day
13h 42m
Waning Crescent, 31% of the Moon is Illuminated
Jun 2
Waning Crescent
Jun 8
New
Jun 16
First Quarter
Jun 23
Full
Jun 30
Last Quarter

Hourly Weather History & Observations

Time (EDT) Temp. Heat Index Dew Point Humidity Pressure Visibility Wind Dir Wind Speed Gust Speed Precip Events Conditions
12:53 AM 73.9 °F - 72.0 °F 93% 30.00 in 10.0 mi ESE 5.8 mph - N/A   Clear
1:11 AM 73.4 °F - 71.6 °F 94% 29.99 in 10.0 mi ESE 4.6 mph - N/A   Partly Cloudy
1:53 AM 73.0 °F - 71.1 °F 93% 29.99 in 10.0 mi SE 3.5 mph - N/A   Clear
2:53 AM 73.0 °F - 71.1 °F 93% 29.96 in 10.0 mi NNE 3.5 mph - N/A   Clear
3:53 AM 73.0 °F - 71.1 °F 93% 29.96 in 10.0 mi Calm Calm - N/A   Clear
4:53 AM 72.0 °F - 71.1 °F 97% 29.96 in 10.0 mi Calm Calm - N/A   Scattered Clouds
5:53 AM 72.0 °F - 71.1 °F 97% 29.96 in 10.0 mi SE 4.6 mph - N/A   Partly Cloudy
6:53 AM 72.0 °F - 71.1 °F 97% 29.98 in 10.0 mi Calm Calm - N/A   Clear
7:53 AM 75.0 °F - 72.0 °F 90% 29.99 in 10.0 mi SSE 4.6 mph - N/A   Clear
8:53 AM 79.0 °F - 73.9 °F 84% 30.00 in 10.0 mi SE 4.6 mph - N/A   Clear
9:53 AM 82.9 °F 88.8 °F 73.0 °F 72% 29.99 in 10.0 mi Variable 3.5 mph - N/A   Clear
10:53 AM 86.0 °F 92.2 °F 72.0 °F 63% 29.99 in 10.0 mi Calm Calm - N/A   Scattered Clouds
11:03 AM 86.0 °F 91.8 °F 71.6 °F 62% 29.98 in 10.0 mi South 5.8 mph - N/A   Mostly Cloudy
11:18 AM 84.2 °F 89.6 °F 71.6 °F 66% 29.98 in 10.0 mi Variable 4.6 mph - N/A   Mostly Cloudy
11:53 AM 88.0 °F 93.8 °F 71.1 °F 57% 29.98 in 10.0 mi South 9.2 mph - N/A   Clear
12:53 PM 89.1 °F 94.1 °F 70.0 °F 53% 29.96 in 10.0 mi SSW 10.4 mph 19.6 mph N/A   Clear
1:53 PM 89.1 °F 93.7 °F 69.1 °F 52% 29.95 in 10.0 mi SSW 8.1 mph - N/A   Clear
2:53 PM 90.0 °F 95.4 °F 70.0 °F 52% 29.95 in 10.0 mi SW 10.4 mph 16.1 mph N/A   Clear
3:53 PM 87.1 °F 92.8 °F 71.1 °F 59% 29.94 in 10.0 mi SW 10.4 mph - N/A   Scattered Clouds
4:53 PM 87.1 °F 92.8 °F 71.1 °F 59% 29.93 in 10.0 mi SSW 12.7 mph 19.6 mph N/A   Partly Cloudy
5:53 PM 84.9 °F 91.4 °F 73.0 °F 67% 29.92 in 10.0 mi SSW 9.2 mph - N/A   Scattered Clouds
6:53 PM 82.9 °F 88.0 °F 72.0 °F 69% 29.92 in 10.0 mi South 11.5 mph - N/A   Partly Cloudy
7:36 PM 80.6 °F 85.4 °F 73.4 °F 79% 29.92 in 10.0 mi South 8.1 mph - N/A   Mostly Cloudy
7:53 PM 81.0 °F 85.2 °F 72.0 °F 74% 29.94 in 10.0 mi South 8.1 mph - N/A   Mostly Cloudy
8:04 PM 80.6 °F 84.6 °F 71.6 °F 74% 29.94 in 10.0 mi South 8.1 mph - N/A   Partly Cloudy
8:53 PM 79.0 °F - 72.0 °F 79% 29.96 in 10.0 mi SSW 3.5 mph - N/A   Clear
9:53 PM 79.0 °F - 72.0 °F 79% 29.98 in 10.0 mi SSW 3.5 mph - N/A   Clear
10:53 PM 78.1 °F - 72.0 °F 81% 29.99 in 10.0 mi Calm Calm - N/A   Clear
11:53 PM 78.1 °F - 73.0 °F 84% 29.98 in 10.0 mi SSE 3.5 mph - N/A   Clear